Location: Esterri de Aneo
(42.6284°N, 1.1223°E)
Time: 15:23:58
(UTC+00:00)

Cosmos 372 Rocket - Pass Details

Date: 11 December 2025
Orbit: 734 x 761 km, 74.1° (Epoch: 16 January)

Event Time Altitude Azimuth Distance (km) Brightness Sun altitude
Rises 18:33:25 0° 209° (SSW) 3,191 7.8 -23.3°
Reaches altitude 10° 18:35:49 10° 214° (SSW) 2,266 7.0 -23.7°
Maximum altitude 18:40:52 58° 293° (WNW) 873 4.4 -24.7°
Enters shadow 18:43:23 29° 1° (N) 1,361 5.2 -25.1°
